Date String (YYYY-MM-DD hh:mm:ss) UTC,Instrument flags,absolute air pressure of the measurement (hPa),sample flow rate (lpm),inlet stack bypass flow (lpm),air temperature of the measurement (°C),ambient temperature measured by the external sensor (°C),aerosol sample conditioner tube jacket temperature (°C),OPC LED temperature (°C),internal box temperature (°C),relative humidity of the measurement (%),span deviation,mass concentration of particles derived from Lorenz-Mie calculation of OPC scattering (μg/m³),mass concentration of particles derived from Lorenz-Mie calculation of OPC scattering (μg/m³),mass concentration of particles derived from Lorenz-Mie calculation of OPC scattering (μg/m³)
DateTimeUTC,F1_M11,P_M11,Q1_M11,Q2_M11,T1_M11,T2_M11,T3_M11,T4_M11,T5_M11,U1_M11,ZSPAN_M11,X0_M11,X2_M11,X1_M11
2024-06-16 01:00:00,SystemResetWarning,0824.0,5.00,000.00,028.9,028.3,000.0,037.1,030.8,017.1,0000.0,0010.64,0004.15,0003.66
2024-06-16 01:01:00,SystemResetWarning,0824.0,5.00,000.00,029.0,028.5,000.0,037.1,030.9,016.6,0000.0,0010.29,0004.20,0003.68
2024-06-16 01:02:00,SystemResetWarning,0824.0,5.00,000.00,029.1,028.7,000.0,037.1,031.0,017.0,0000.0,0010.05,0004.27,0003.72
2024-06-16 01:03:00,SystemResetWarning,0824.0,5.00,000.00,029.2,028.9,000.0,037.2,031.1,017.0,0000.0,0010.48,0004.30,0003.75
2024-06-16 01:04:00,SystemResetWarning,0824.0,5.00,000.00,029.3,029.0,000.0,037.2,031.2,016.6,0000.0,0010.38,0004.32,0003.78
2024-06-16 01:05:00,SystemResetWarning,0823.9,4.98,000.00,029.3,027.9,000.0,037.3,030.6,016.8,0000.0,0010.23,0004.31,0003.80
2024-06-16 01:06:00,SystemResetWarning,0823.8,5.01,000.00,028.8,025.6,000.0,037.3,029.5,017.3,0000.0,0009.66,0004.33,0003.82
2024-06-16 01:07:00,SystemResetWarning,0823.8,5.02,000.00,028.6,025.4,000.0,037.3,029.4,017.7,0000.0,0010.07,0004.35,0003.85
2024-06-16 01:08:00,SystemResetWarning,0823.7,4.99,000.00,028.5,026.0,000.0,037.2,029.7,017.6,0000.0,0009.91,0004.39,0003.89
2024-06-16 01:09:00,SystemResetWarning,0823.8,5.00,000.00,028.5,026.5,000.0,037.1,029.9,017.2,0000.0,0009.96,0004.42,0003.92
2024-06-16 01:10:00,SystemResetWarning,0823.8,5.01,000.00,028.6,026.9,000.0,037.1,030.2,017.3,0000.0,0009.42,0004.48,0003.95
2024-06-16 01:11:00,SystemResetWarning,0823.8,4.99,000.00,028.7,027.3,000.0,037.1,030.3,017.0,0000.0,0009.48,0004.49,0003.96
2024-06-16 01:12:00,SystemResetWarning,0823.8,5.00,000.00,028.7,027.7,000.0,037.0,030.5,017.3,0000.0,0009.39,0004.49,0003.98
2024-06-16 01:13:00,SystemResetWarning,0823.8,5.01,000.00,028.8,028.0,000.0,037.1,030.6,017.1,0000.0,0009.40,0004.48,0003.98
2024-06-16 01:14:00,SystemResetWarning,0823.8,5.00,000.00,028.9,028.2,000.0,037.1,030.8,017.5,0000.0,0009.58,0004.49,0003.99
2024-06-16 01:15:00,SystemResetWarning,0823.8,4.99,000.00,029.0,028.4,000.0,037.1,030.9,017.2,0000.0,0009.61,0004.52,0004.00
2024-06-16 01:16:00,SystemResetWarning,0823.8,5.00,000.00,029.1,028.6,000.0,037.1,031.0,017.0,0000.0,0009.47,0004.55,0004.02
2024-06-16 01:17:00,SystemResetWarning,0823.8,5.01,000.00,029.2,028.8,000.0,037.2,031.1,017.2,0000.0,0009.44,0004.58,0004.04
2024-06-16 01:18:00,SystemResetWarning,0823.8,5.01,000.00,029.3,028.9,000.0,037.2,031.2,017.1,0000.0,0009.61,0004.62,0004.04
2024-06-16 01:19:00,SystemResetWarning,0823.8,5.00,000.00,029.3,028.7,000.0,037.3,031.0,017.1,0000.0,0009.91,0004.62,0004.04
2024-06-16 01:20:00,SystemResetWarning,0823.7,4.98,000.00,029.1,026.3,000.0,037.4,029.9,017.1,0000.0,0010.25,0004.61,0004.04
2024-06-16 01:21:00,SystemResetWarning,0823.8,5.02,000.00,028.6,025.1,000.0,037.4,029.3,017.8,0000.0,0010.09,0004.61,0004.05
2024-06-16 01:22:00,SystemResetWarning,0823.8,5.01,000.00,028.5,025.7,000.0,037.3,029.5,017.8,0000.0,0010.08,0004.68,0004.06
2024-06-16 01:23:00,SystemResetWarning,0823.8,5.00,000.00,028.5,026.2,000.0,037.2,029.8,017.9,0000.0,0010.10,0004.71,0004.08
2024-06-16 01:24:00,SystemResetWarning,0823.8,5.00,000.00,028.6,026.7,000.0,037.1,030.0,017.9,0000.0,0010.00,0004.72,0004.09
2024-06-16 01:25:00,SystemResetWarning,0823.8,5.00,000.00,028.6,027.1,000.0,037.1,030.3,017.8,0000.0,0009.76,0004.73,0004.10
2024-06-16 01:26:00,SystemResetWarning,0823.8,4.99,000.00,028.7,027.5,000.0,037.0,030.4,017.4,0000.0,0010.29,0004.71,0004.11
2024-06-16 01:27:00,SystemResetWarning,0823.8,4.99,000.00,028.8,027.8,000.0,037.0,030.6,017.7,0000.0,0010.66,0004.74,0004.12
2024-06-16 01:28:00,SystemResetWarning,0823.8,5.00,000.00,028.9,028.1,000.0,037.1,030.7,018.0,0000.0,0011.41,0004.74,0004.12
2024-06-16 01:29:00,SystemResetWarning,0823.8,5.00,000.00,029.0,028.3,000.0,037.1,030.8,018.0,0000.0,0011.32,0004.73,0004.12
2024-06-16 01:30:00,SystemResetWarning,0823.8,5.00,000.00,029.0,028.5,000.0,037.1,030.9,018.2,0000.0,0011.42,0004.78,0004.12
2024-06-16 01:31:00,SystemResetWarning,0823.9,5.00,000.00,029.1,028.7,000.0,037.2,031.0,017.6,0000.0,0011.68,0004.87,0004.13
2024-06-16 01:32:00,SystemResetWarning,0823.9,5.00,000.00,029.2,028.9,000.0,037.2,031.1,018.2,0000.0,0012.50,0004.85,0004.13
2024-06-16 01:33:00,SystemResetWarning,0823.9,5.00,000.00,029.3,029.0,000.0,037.2,031.2,018.6,0000.0,0013.16,0004.80,0004.11
2024-06-16 01:34:00,SystemResetWarning,0823.9,5.00,000.00,029.4,028.6,000.0,037.3,031.1,018.0,0000.0,0014.93,0004.80,0004.09
2024-06-16 01:35:00,SystemResetWarning,0823.9,5.00,000.00,029.1,026.4,000.0,037.4,030.0,017.9,0000.0,0015.18,0004.82,0004.08
2024-06-16 01:36:00,SystemResetWarning,0823.8,5.02,000.00,028.7,025.4,000.0,037.4,029.5,017.7,0000.0,0015.57,0004.82,0004.08
2024-06-16 01:37:00,SystemResetWarning,0823.9,5.00,000.00,028.6,025.9,000.0,037.3,029.7,018.3,0000.0,0015.23,0004.87,0004.10
2024-06-16 01:38:00,SystemResetWarning,0824.0,5.00,000.00,028.6,026.4,000.0,037.2,029.9,017.7,0000.0,0014.94,0004.84,0004.10
2024-06-16 01:39:00,SystemResetWarning,0823.9,4.99,000.00,028.7,026.9,000.0,037.2,030.2,017.4,0000.0,0014.27,0004.85,0004.11
2024-06-16 01:40:00,SystemResetWarning,0824.0,5.00,000.00,028.7,027.3,000.0,037.1,030.4,017.1,0000.0,0013.71,0004.87,0004.13
2024-06-16 01:41:00,SystemResetWarning,0824.0,5.00,000.00,028.8,027.6,000.0,037.1,030.5,017.1,0000.0,0013.34,0004.87,0004.15
2024-06-16 01:42:00,SystemResetWarning,0824.0,5.00,000.00,028.9,027.9,000.0,037.1,030.7,017.1,0000.0,0012.85,0004.83,0004.15
2024-06-16 01:43:00,SystemResetWarning,0823.9,5.00,000.00,029.0,028.2,000.0,037.1,030.8,017.2,0000.0,0012.46,0004.88,0004.17
2024-06-16 01:44:00,SystemResetWarning,0824.0,4.99,000.00,029.0,028.4,000.0,037.2,030.9,017.0,0000.0,0011.50,0004.92,0004.20
2024-06-16 01:45:00,SystemResetWarning,0824.0,5.00,000.00,029.1,028.6,000.0,037.2,031.0,016.8,0000.0,0010.01,0004.92,0004.23
2024-06-16 01:46:00,SystemResetWarning,0823.9,5.00,000.00,029.2,028.8,000.0,037.2,031.1,017.1,0000.0,0009.34,0004.90,0004.26
2024-06-16 01:47:00,SystemResetWarning,0824.0,5.00,000.00,029.3,029.0,000.0,037.3,031.2,017.2,0000.0,0008.92,0004.93,0004.29
2024-06-16 01:48:00,SystemResetWarning,0824.0,5.00,000.00,029.4,029.0,000.0,037.3,031.2,017.3,0000.0,0008.97,0004.95,0004.29
2024-06-16 01:49:00,SystemResetWarning,0823.9,4.98,000.00,029.3,027.3,000.0,037.4,030.4,017.7,0000.0,0009.34,0004.98,0004.29
2024-06-16 01:50:00,SystemResetWarning,0823.8,5.01,000.00,028.8,025.3,000.0,037.4,029.5,018.5,0000.0,0009.76,0004.96,0004.28
2024-06-16 01:51:00,SystemResetWarning,0823.8,5.01,000.00,028.6,025.6,000.0,037.4,029.5,018.0,0000.0,0010.16,0004.95,0004.28
2024-06-16 01:52:00,SystemResetWarning,0823.8,4.99,000.00,028.6,026.2,000.0,037.3,029.8,018.2,0000.0,0010.48,0004.96,0004.29
2024-06-16 01:53:00,SystemResetWarning,0823.8,5.00,000.00,028.6,026.6,000.0,037.2,030.0,018.1,0000.0,0010.46,0004.97,0004.29
2024-06-16 01:54:00,SystemResetWarning,0823.8,5.01,000.00,028.7,027.1,000.0,037.2,030.3,017.6,0000.0,0010.95,0004.93,0004.28
2024-06-16 01:55:00,SystemResetWarning,0823.8,5.00,000.00,028.8,027.5,000.0,037.1,030.4,017.5,0000.0,0011.11,0004.94,0004.28
2024-06-16 01:56:00,SystemResetWarning,0823.8,5.00,000.00,028.8,027.8,000.0,037.1,030.6,017.5,0000.0,0011.27,0004.97,0004.29
2024-06-16 01:57:00,SystemResetWarning,0823.8,5.00,000.00,028.9,028.1,000.0,037.2,030.7,017.1,0000.0,0011.58,0004.94,0004.28
2024-06-16 01:58:00,SystemResetWarning,0823.8,5.00,000.00,029.0,028.3,000.0,037.2,030.9,017.2,0000.0,0011.85,0004.89,0004.27
2024-06-16 01:59:00,SystemResetWarning,0823.8,5.00,000.00,029.1,028.5,000.0,037.2,031.0,017.1,0000.0,0011.49,0004.86,0004.27
